Stations météo

réclame
Mon MeteoGroup
Ölands Södra Udde, Suède (2644): Température de l'air & dewpoint: 14.10.2018 21:00:00 - 20.10.2018 21:00:00 (CEST)Ölands Södra Udde, Suède (2644): Vitesse du vent & gusts: 14.10.2018 21:00:00 - 20.10.2018 21:00:00 (CEST)Ölands Södra Udde, Suède (2644): Direction du vent: 14.10.2018 21:00:00 - 20.10.2018 21:00:00 (CEST)Ölands Södra Udde, Suède (2644): reduced air pressure: 14.10.2018 21:00:00 - 20.10.2018 21:00:00 (CEST)Ölands Södra Udde, Suède (2644): visibility: 14.10.2018 21:00:00 - 20.10.2018 21:00:00 (CEST)Ölands Södra Udde, Suède (2644): Quantités de précipitations: 14.10.2018 21:00:00 - 20.10.2018 21:00:00 (CEST)
Date & Time tt [°C] td [°C] ff [km/h] ff [knt] fx [km/h] fx [knt] dd ppp [hPa] vv [km] rr [mm]
20.10.2018 21:00:00 8,5 7,6 6 3 15 8 W 1024,6 - 0,0
20.10.2018 20:00:00 8,6 7,5 8 4 18 10 W 1024,4 - 0,0
20.10.2018 19:00:00 8,5 7,6 13 7 18 10 WSW 1024,1 - 0,0
20.10.2018 18:00:00 8,5 7,4 13 7 18 10 WSW 1023,8 - 0,0
20.10.2018 17:00:00 9,8 7,6 13 7 21 11 WSW 1023,6 50 0,0
20.10.2018 16:00:00 10,0 7,6 11 6 21 11 WSW 1023,3 45 0,0
20.10.2018 15:00:00 10,1 7,9 12 7 21 12 WSW 1023,5 50 0,0
20.10.2018 14:00:00 10,3 7,9 9 5 27 14 WSW 1023,5 45 0,0
20.10.2018 13:00:00 9,4 7,3 18 10 27 14 W 1023,6 44 0,0
20.10.2018 12:00:00 9,3 7,4 11 6 19 10 WSW 1023,6 42 0,0
20.10.2018 11:00:00 9,2 7,3 14 8 25 14 W 1023,5 29 0,0
20.10.2018 10:00:00 8,4 7,0 17 9 26 14 W 1023,2 37 0,0
20.10.2018 09:00:00 8,3 7,2 18 10 26 14 W 1022,9 40 0,0
20.10.2018 08:00:00 8,1 6,7 17 9 21 12 W 1022,7 45 0,0
20.10.2018 07:00:00 8,1 6,9 14 7 23 12 W 1022,4 - 0,0
20.10.2018 06:00:00 7,7 6,8 13 7 23 12 W 1022,3 - 0,0
20.10.2018 05:00:00 7,8 6,7 13 7 21 11 W 1022,6 - 0,0
20.10.2018 04:00:00 7,6 6,7 13 7 21 11 W 1022,6 - 0,0
20.10.2018 03:00:00 7,7 6,9 14 8 19 11 WSW 1022,8 - 0,0
20.10.2018 02:00:00 7,8 6,7 7 4 16 9 W 1022,9 - 0,0
20.10.2018 01:00:00 7,5 6,8 7 4 14 8 W 1023,1 - 0,0
20.10.2018 00:00:00 7,7 7,1 11 6 13 7 WSW 1023,2 - 0,0
19.10.2018 23:00:00 8,0 7,1 10 6 17 9 WSW 1023,6 - 0,0
19.10.2018 22:00:00 8,1 7,5 9 5 17 9 SW 1023,7 - 0,0
19.10.2018 21:00:00 8,4 7,3 13 7 18 10 SW 1023,7 - 0,0
19.10.2018 20:00:00 8,2 6,9 11 6 22 12 WSW 1023,3 - 0,0
19.10.2018 19:00:00 8,6 6,7 14 8 22 12 WSW 1023,4 - 0,0
19.10.2018 18:00:00 8,3 6,1 12 6 16 9 WSW 1023,5 50 0,0
19.10.2018 17:00:00 8,7 5,6 9 5 13 7 SW 1023,7 50 0,0
19.10.2018 16:00:00 - - - - 10 5 - - - -
19.10.2018 15:00:00 10,6 4,9 4 2 9 5 SSW 1024,3 46 0,0
19.10.2018 14:00:00 9,2 6,1 6 3 9 5 W 1024,7 42 0,0
19.10.2018 13:00:00 8,5 6,3 6 4 11 6 WNW 1024,8 41 0,0
19.10.2018 12:00:00 7,5 5,5 7 4 14 8 NW 1024,9 50 0,0
19.10.2018 11:00:00 7,6 5,7 8 5 17 9 NNW 1024,9 42 0,0
19.10.2018 10:00:00 7,2 5,5 12 7 18 10 NNW 1024,7 45 0,0
19.10.2018 09:00:00 6,9 5,1 13 7 19 10 NNW 1024,4 50 0,0
19.10.2018 08:00:00 6,4 4,7 16 9 19 10 NNW 1024,0 50 0,0
19.10.2018 07:00:00 6,5 4,7 15 8 19 10 NNW 1023,7 50 0,0
19.10.2018 06:00:00 6,5 4,8 16 9 19 10 NNW 1023,5 50 0,0
19.10.2018 05:00:00 6,7 5,0 16 9 18 10 NNW 1023,5 50 0,0
19.10.2018 04:00:00 6,9 5,7 13 7 16 8 NNW 1023,2 50 0,0
19.10.2018 03:00:00 6,2 4,8 10 5 15 8 NNW 1023,2 50 0,0
19.10.2018 02:00:00 5,4 3,9 11 6 15 8 N 1023,3 50 0,0
19.10.2018 01:00:00 5,7 4,3 11 6 16 8 N 1023,3 50 0,0
19.10.2018 00:00:00 6,1 4,7 12 6 16 9 N 1022,8 50 0,0
18.10.2018 23:00:00 6,5 4,3 14 8 16 9 N 1022,5 50 0,0
18.10.2018 22:00:00 7,6 6,4 11 6 15 8 NNW 1022,2 50 0,0
18.10.2018 21:00:00 8,5 7,6 11 6 17 9 NNW 1021,6 21 0,0
18.10.2018 20:00:00 8,7 7,8 8 4 17 9 N 1021,0 12 0,0
18.10.2018 19:00:00 9,2 8,9 8 4 11 6 NW 1020,5 2,4 0,0
18.10.2018 18:00:00 10,2 9,9 6 3 12 6 W 1019,9 3,0 0,0
18.10.2018 17:00:00 11,3 10,0 6 3 11 6 WSW 1019,2 7 0,0
18.10.2018 16:00:00 12,4 11,3 6 4 10 6 W 1018,7 9 0,0
18.10.2018 15:00:00 11,3 11,1 5 3 10 6 NW 1018,8 4,9 0,1
18.10.2018 14:00:00 10,5 10,3 5 3 8 4 WNW 1018,7 2,8 0,0
18.10.2018 13:00:00 9,7 9,6 5 3 11 6 WSW 1018,7 2,5 0,0
18.10.2018 12:00:00 9,6 9,5 3 2 16 8 W 1018,6 1,8 0,0
18.10.2018 11:00:00 9,0 8,9 7 4 16 8 W 1018,6 0,4 0,0
18.10.2018 10:00:00 9,2 9,1 6 3 14 7 W 1018,4 0,2 0,0
18.10.2018 09:00:00 9,0 8,9 10 5 14 7 W 1018,3 0,9 0,0
18.10.2018 08:00:00 8,3 8,2 7 4 14 7 WSW 1017,9 3,7 0,0
18.10.2018 07:00:00 7,1 7,0 9 5 13 7 SSW 1017,8 - 0,0
18.10.2018 06:00:00 7,4 7,3 6 3 15 8 WSW 1018,0 - 0,0
18.10.2018 05:00:00 7,8 7,7 8 5 16 8 SW 1018,1 - 0,2
18.10.2018 04:00:00 8,3 8,2 11 6 16 8 SSW 1018,4 - 0,0
18.10.2018 03:00:00 7,5 7,4 9 5 11 6 S 1018,9 - 0,0
18.10.2018 02:00:00 7,8 7,7 7 4 14 8 S 1019,0 - 0,0
18.10.2018 01:00:00 8,8 8,7 4 2 18 10 W 1019,4 - 0,0
18.10.2018 00:00:00 9,5 9,4 11 6 18 10 SSW 1019,7 - 0,0
17.10.2018 23:00:00 9,8 9,7 13 7 16 9 SSW 1019,7 - 0,0
17.10.2018 22:00:00 9,0 8,9 14 8 16 9 S 1020,1 - 0,0
17.10.2018 21:00:00 8,3 8,2 10 6 13 7 S 1020,0 - 0,0
17.10.2018 20:00:00 10,1 9,9 9 5 16 9 SSW 1019,8 - 0,0
17.10.2018 19:00:00 - - - - 16 9 - - - -
17.10.2018 18:00:00 9,8 9,3 9 5 10 6 SSW 1019,7 - 0,0
17.10.2018 17:00:00 11,4 10,6 5 3 11 6 SW 1019,8 4,7 0,0
17.10.2018 16:00:00 12,0 10,2 9 5 11 6 S 1019,7 7 0,0
17.10.2018 15:00:00 13,2 10,6 6 3 10 5 S 1019,9 10 0,0
17.10.2018 14:00:00 13,6 10,4 5 3 10 5 SSW 1019,9 14 0,0
17.10.2018 13:00:00 12,9 9,9 6 3 8 4 S 1020,2 8 0,0
17.10.2018 12:00:00 14,5 11,6 4 2 9 5 SSW 1020,4 10 0,0
17.10.2018 11:00:00 11,9 10,1 6 3 11 6 W 1020,6 8 0,0
17.10.2018 10:00:00 10,9 9,2 7 4 11 6 WSW 1020,3 8 0,0
17.10.2018 09:00:00 9,5 9,0 10 5 11 6 SSW 1020,0 5 0,0
17.10.2018 08:00:00 7,7 7,4 9 5 10 6 S 1020,0 1,9 0,0
17.10.2018 07:00:00 8,1 7,7 4 2 12 7 WSW 1019,6 - 0,0
17.10.2018 06:00:00 9,3 8,8 9 5 18 10 SSW 1019,2 - 0,0
17.10.2018 05:00:00 9,7 9,2 10 6 18 10 SW 1019,3 - 0,0
17.10.2018 04:00:00 9,4 8,6 14 8 18 10 SSW 1019,3 - 0,0
17.10.2018 03:00:00 9,0 8,9 14 8 16 9 SSW 1019,3 - 0,0
17.10.2018 02:00:00 8,7 8,6 12 7 16 8 SSW 1019,3 - 0,0
17.10.2018 01:00:00 8,8 8,7 10 5 12 6 S 1019,4 - 0,0
17.10.2018 00:00:00 8,0 7,9 8 4 11 6 S 1019,6 - 0,0
16.10.2018 23:00:00 9,0 8,9 8 4 15 8 SSW 1019,8 - 0,0
16.10.2018 22:00:00 8,3 8,2 7 4 17 9 SSE 1019,9 - 0,0
16.10.2018 21:00:00 10,3 10,1 10 6 17 9 SSW 1019,7 - 0,0
16.10.2018 20:00:00 9,2 9,1 15 8 18 10 S 1019,4 - 0,0
16.10.2018 19:00:00 9,3 9,2 14 7 18 10 S 1019,3 - 0,0
16.10.2018 18:00:00 9,5 9,2 14 7 18 10 S 1019,0 0,6 0,0
16.10.2018 17:00:00 10,4 9,6 15 8 17 9 S 1018,8 8 0,0
16.10.2018 16:00:00 13,1 11,0 8 4 17 9 SW 1018,9 14 0,0
16.10.2018 15:00:00 14,0 11,6 11 6 17 9 SW 1018,8 16 0,0
16.10.2018 14:00:00 13,0 10,7 11 6 16 9 SW 1018,8 17 0,0
16.10.2018 13:00:00 12,8 10,9 11 6 16 9 SSW 1018,7 16 0,0
16.10.2018 12:00:00 12,0 10,2 10 5 14 8 S 1018,8 13 0,0
16.10.2018 11:00:00 11,8 10,4 10 5 13 7 S 1018,3 13 0,0
16.10.2018 10:00:00 11,3 10,0 7 4 13 7 S 1018,3 11 0,0
16.10.2018 09:00:00 10,0 9,1 7 4 15 8 S 1018,0 7 0,0
16.10.2018 08:00:00 9,6 9,5 10 6 17 9 SSW 1017,3 7 0,0
16.10.2018 07:00:00 8,9 8,6 11 6 20 11 SSW 1016,9 7 0,0
16.10.2018 06:00:00 9,5 8,9 13 7 20 11 SSW 1016,6 13 0,0
16.10.2018 05:00:00 10,0 9,1 15 8 20 11 SSW 1016,5 16 0,0
16.10.2018 04:00:00 8,8 8,0 13 7 23 12 S 1016,3 14 0,0
16.10.2018 03:00:00 9,5 8,6 16 8 24 13 S 1016,5 17 0,0
16.10.2018 02:00:00 10,1 9,0 21 11 24 13 S 1016,4 19 0,0
16.10.2018 01:00:00 9,6 8,5 18 10 22 12 S 1016,3 21 0,0
16.10.2018 00:00:00 9,5 8,7 17 9 19 10 S 1016,2 13 0,0
15.10.2018 23:00:00 9,2 8,3 14 8 18 10 S 1016,5 13 0,0
15.10.2018 22:00:00 8,9 8,3 13 7 18 10 S 1016,8 11 0,0
15.10.2018 21:00:00 8,8 8,2 10 5 21 12 S 1017,0 11 0,0
15.10.2018 20:00:00 9,5 8,7 18 10 21 12 SSE 1016,8 14 0,0
15.10.2018 19:00:00 9,4 8,5 16 9 19 10 SSE 1016,8 13 0,0
15.10.2018 18:00:00 9,6 8,5 14 7 21 11 S 1016,6 15 0,0
15.10.2018 17:00:00 10,5 8,9 17 9 21 12 S 1016,6 16 0,0
15.10.2018 16:00:00 10,8 8,9 15 8 22 12 S 1016,6 14 0,0
15.10.2018 15:00:00 11,5 9,4 17 9 24 13 S 1016,7 17 0,0
15.10.2018 14:00:00 11,9 9,6 20 11 24 13 S 1016,8 18 0,0
15.10.2018 13:00:00 12,2 9,8 19 10 22 12 S 1016,8 19 0,0
15.10.2018 12:00:00 11,9 9,6 16 9 24 13 S 1017,0 19 0,0
15.10.2018 11:00:00 11,7 9,8 19 10 26 14 S 1017,1 20 0,0
15.10.2018 10:00:00 11,1 9,5 23 13 26 14 S 1017,0 15 0,0
15.10.2018 09:00:00 10,4 9,2 20 11 23 12 S 1016,8 13 0,0
15.10.2018 08:00:00 9,5 8,7 18 10 24 13 S 1016,5 11 0,0
15.10.2018 07:00:00 9,5 8,7 18 10 25 14 S 1016,4 11 0,0
15.10.2018 06:00:00 9,8 8,7 21 11 27 14 S 1016,1 14 0,0
15.10.2018 05:00:00 10,1 9,0 22 12 29 16 S 1016,0 13 0,0
15.10.2018 04:00:00 10,2 9,3 22 12 29 16 S 1016,1 11 0,0
15.10.2018 03:00:00 10,5 9,4 24 13 29 16 S 1016,2 12 0,0
15.10.2018 02:00:00 10,5 9,3 23 12 28 15 S 1016,1 12 0,0
15.10.2018 01:00:00 10,6 9,2 23 12 29 15 S 1016,0 13 0,0
15.10.2018 00:00:00 10,7 9,5 25 14 29 15 SSE 1015,8 13 0,0
14.10.2018 23:00:00 10,2 9,1 18 10 21 11 SSE 1016,2 13 0,0
14.10.2018 22:00:00 9,7 9,1 16 8 21 11 SSE 1016,3 10 0,0
14.10.2018 21:00:00 9,7 8,6 13 7 33 18 S 1016,5 14 0,0

tt = Température de l'air
td = dewpoint
ff = Vitesse du vent
fx = gusts
dd = Direction du vent
ppp = reduced air pressure
vv = visibility
rr = Quantités de précipitations

stations d'obs. à proximité